Weather History for West Palm Beach, FL

Change the Weather History Date:

Tuesday, April 29, 2014

  Actual Average Record
Temperature  
Mean Temperature 83 °F 76 °F  
Max Temperature 88 °F 83 °F 95 °F (2011)
Min Temperature 78 °F 68 °F 44 °F (1928)
Degree Days  
Heating Degree Days 0 0  
Month to date heating degree days 0 0  
Since 1 July heating degree days 122 229  
Cooling Degree Days 18 11  
Month to date cooling degree days 321 255  
Year to date cooling degree days 869 683  
Growing Degree Days 33 (Base 50)    
Moisture  
Dew Point 73 °F    
Average Humidity 71    
Maximum Humidity 85    
Minimum Humidity 57    
Precipitation  
Precipitation 0.00 in 0.09 in 3.17 in (1964)
Month to date precipitation 1.04 3.57  
Year to date precipitation 14.92 14.11  
Snow  
Snow 0.00 in - - ()
Month to date snowfall 0.0  
Since 1 July snowfall 0.0  
Snow Depth 0.00 in    
Sea Level Pressure  
Sea Level Pressure 29.95 in    
Wind  
Wind Speed 13 mph (SE)    
Max Wind Speed 24 mph    
Max Gust Speed 32 mph    
Visibility 10 miles    
Events      
T = Trace of Precipitation, MM = Missing Value Source: NWS Daily Summary

Daily Weather History Graph

Daily Weather History Graph

Search for Another Location

Airport:

Trip Planner

Search our weather history database for the weather conditions in past years. The results will help you decide how hot, cold, wet, or windy it might be!

Date:

Astronomy

Apr. 29, 2014 Rise Set
Actual Time 6:43 AM EDT 7:51 PM EDT
Civil Twilight 6:19 AM EDT 8:16 PM EDT
Nautical Twilight 5:50 AM EDT 8:45 PM EDT
Astronomical Twilight 5:21 AM EDT 9:14 PM EDT
Moon 7:00 AM EDT (4/29) 8:28 PM EDT (4/29)
Length of Visible Light 13h 56m
Length of Day
13h 07m
New Moon, 0% of the Moon is Illuminated
Apr 29
New Moon
May 6
First Quarter
May 14
Full
May 21
Last Quarter
May 28
New

Hourly Weather History & Observations

Time (EDT) Temp. Heat Index Dew Point Humidity Pressure Visibility Wind Dir Wind Speed Gust Speed Precip Events Conditions
12:53 AM 79.0 °F - 71.1 °F 77% 29.94 in 10.0 mi SE 13.8 mph - N/A   Scattered Clouds
1:53 AM 79.0 °F - 72.0 °F 79% 29.94 in 10.0 mi SE 11.5 mph - N/A   Scattered Clouds
2:53 AM 79.0 °F - 72.0 °F 79% 29.92 in 10.0 mi SE 10.4 mph - N/A   Scattered Clouds
3:53 AM 79.0 °F - 71.1 °F 77% 29.89 in 10.0 mi SSE 12.7 mph - N/A   Scattered Clouds
4:53 AM 79.0 °F - 73.0 °F 82% 29.89 in 10.0 mi SSE 11.5 mph - N/A   Scattered Clouds
5:53 AM 79.0 °F - 73.0 °F 82% 29.91 in 10.0 mi SSE 6.9 mph - N/A   Scattered Clouds
6:53 AM 79.0 °F - 73.0 °F 82% 29.91 in 10.0 mi SSE 10.4 mph - N/A   Scattered Clouds
7:53 AM 81.0 °F 85.8 °F 73.0 °F 77% 29.95 in 10.0 mi SSE 5.8 mph - N/A   Scattered Clouds
8:07 AM 81.0 °F 85.8 °F 73.0 °F 77% 29.95 in 10.0 mi South 8.1 mph - N/A   Mostly Cloudy
8:33 AM 81.0 °F 85.8 °F 73.0 °F 77% 29.96 in 10.0 mi South 10.4 mph - N/A   Scattered Clouds
8:53 AM 84.0 °F 89.6 °F 72.0 °F 67% 29.96 in 10.0 mi SSE 12.7 mph - N/A   Scattered Clouds
9:53 AM 84.9 °F 90.1 °F 71.1 °F 63% 29.96 in 10.0 mi ESE 12.7 mph - N/A   Scattered Clouds
10:22 AM 84.9 °F 90.1 °F 71.1 °F 63% 29.98 in 10.0 mi SE 12.7 mph - N/A   Mostly Cloudy
10:53 AM 86.0 °F 90.7 °F 70.0 °F 59% 29.98 in 10.0 mi SE 17.3 mph - N/A   Mostly Cloudy
11:53 AM 86.0 °F 92.2 °F 72.0 °F 63% 29.98 in 10.0 mi SSE 19.6 mph 25.3 mph N/A   Mostly Cloudy
12:53 PM 86.0 °F 92.2 °F 72.0 °F 63% 29.97 in 10.0 mi SSE 20.7 mph 28.8 mph N/A   Mostly Cloudy
1:14 PM 86.0 °F 92.2 °F 72.0 °F 63% 29.97 in 10.0 mi SE 18.4 mph 31.1 mph N/A   Mostly Cloudy
1:53 PM 86.0 °F 92.2 °F 72.0 °F 63% 29.96 in 10.0 mi SE 17.3 mph 28.8 mph N/A   Mostly Cloudy
2:53 PM 87.1 °F 92.8 °F 71.1 °F 59% 29.95 in 10.0 mi SSE 21.9 mph 26.5 mph N/A   Mostly Cloudy
3:53 PM 87.1 °F 93.6 °F 72.0 °F 61% 29.94 in 10.0 mi SSE 17.3 mph - N/A   Scattered Clouds
4:53 PM 84.0 °F 90.2 °F 73.0 °F 69% 29.93 in 10.0 mi SSE 17.3 mph 24.2 mph N/A   Mostly Cloudy
5:53 PM 84.9 °F 91.4 °F 73.0 °F 67% 29.93 in 10.0 mi SE 17.3 mph - N/A   Mostly Cloudy
6:53 PM 82.9 °F 88.8 °F 73.0 °F 72% 29.92 in 10.0 mi SE 16.1 mph - N/A   Mostly Cloudy
7:53 PM 81.0 °F 86.2 °F 73.9 °F 79% 29.96 in 10.0 mi SE 10.4 mph - N/A   Mostly Cloudy
8:53 PM 81.0 °F 85.8 °F 73.0 °F 77% 29.98 in 10.0 mi SE 10.4 mph - N/A   Scattered Clouds
9:53 PM 80.1 °F 84.5 °F 73.9 °F 81% 30.01 in 10.0 mi ESE 9.2 mph - N/A   Scattered Clouds
10:53 PM 81.0 °F 87.3 °F 75.9 °F 85% 30.02 in 10.0 mi ESE 11.5 mph - N/A   Scattered Clouds
11:53 PM 80.1 °F 84.5 °F 73.9 °F 81% 30.02 in 10.0 mi ESE 6.9 mph - N/A   Scattered Clouds